Location: Newport
(44.6370°N, 124.0520°W)
Time: 05:33:54
(UTC-07:00)

ISS - Pass Details

Date: 12 October 2017
Orbit: 401 x 408 km, 51.6° (Epoch: 20 October)

Event Time Altitude Azimuth Distance (km) Brightness Sun altitude
Rises 21:15:00 0° 287° (WNW) 2,327 1.3 -28.8°
Reaches altitude 10° 21:17:49 10° 261° (W) 1,464 -0.3 -29.2°
Enters shadow 21:18:14 11° 254° (WSW) 1,378 -0.5 -29.3°
